Total_Precipitation_Accumulation
0.07 0.11 0.15 0.16 0.15 0.11 0.13 0.20 0.27 0.34 0.30 0.33 0.54 0.83 1.13 1.30 1.60 1.50 1.51 1.65 1.79 1.91 2.20 2.62 2.89 3.40 3.99 4.45 4.88 5.11 5.20 5.10 4.94 4.58 4.29 4.06 3.82 3.60 3.32 3.11 3.01 2.97 2.92 3.16
0.09 0.12 0.10 0.11 0.10 0.12 0.14 0.20 0.25 0.30 0.29 0.38 0.61 0.88 1.22 1.33 1.41 1.39 1.31 1.36 1.56 1.86 2.11 2.60 2.90 3.12 3.53 4.05 4.54 4.88 5.10 5.00 4.62 4.28 4.14 4.07 4.04 3.65 3.37 3.33 3.49 3.28 3.28 3.33
0.12 0.12 0.10 0.09 0.09 0.12 0.17 0.21 0.24 0.25 0.28 0.49 0.68 1.20 1.45 1.36 1.38 1.35 1.32 1.34 1.50 1.94 2.38 2.64 2.84 2.98 3.21 3.61 3.92 4.04 4.25 4.24 4.08 4.13 4.16 4.15 4.20 3.80 3.73 3.75 3.78 3.54 3.54 3.55
0.10 0.08 0.09 0.11 0.13 0.16 0.23 0.22 0.19 0.22 0.33 0.62 0.75 1.50 1.89 1.68 1.57 1.63 1.62 1.53 1.77 2.03 2.08 2.28 2.55 2.81 2.97 3.20 3.52 3.75 3.82 3.78 3.71 3.84 3.92 3.85 3.67 3.57 3.74 4.03 3.96 3.69 3.48 3.35
0.09 0.08 0.10 0.13 0.14 0.16 0.20 0.20 0.21 0.27 0.37 0.62 0.79 1.22 1.80 1.72 1.88 1.85 1.66 1.70 1.97 1.92 1.81 1.95 2.15 2.45 2.57 2.88 3.16 3.37 3.62 3.71 3.66 3.76 3.77 3.82 3.65 3.64 3.70 3.70 3.77 3.58 3.40 3.08
0.08 0.09 0.09 0.10 0.12 0.14 0.16 0.21 0.31 0.42 0.61 1.07 0.88 1.00 1.64 1.71 1.59 1.58 1.56 1.50 1.69 1.62 1.59 1.82 2.01 2.28 2.44 2.56 2.69 2.80 3.01 3.27 3.47 3.53 3.53 3.63 3.58 3.51 3.46 3.46 3.37 3.16 3.00 2.80
0.13 0.15 0.13 0.11 0.13 0.15 0.17 0.32 0.80 1.22 1.43 1.40 0.77 0.89 1.43 1.32 1.24 1.25 1.36 1.37 1.40 1.35 1.33 1.56 1.72 1.90 2.11 2.21 2.30 2.46 2.75 3.10 3.19 3.16 3.15 3.28 3.33 3.32 3.26 3.25 3.11 2.89 2.67 2.45
0.22 0.29 0.19 0.13 0.14 0.17 0.21 0.28 0.77 1.13 1.26 1.19 0.93 1.36 1.78 1.32 1.15 1.20 1.29 1.28 1.24 1.18 1.12 1.26 1.52 1.84 2.00 1.97 2.03 2.20 2.50 2.77 2.82 2.75 2.91 3.19 3.25 3.28 3.20 3.24 2.93 2.68 2.47 2.43
0.17 0.19 0.14 0.14 0.17 0.19 0.21 0.23 0.34 0.56 0.69 0.98 1.20 1.53 1.53 1.05 1.00 1.06 1.14 1.14 1.26 1.21 1.13 1.21 1.29 1.49 1.61 1.66 1.74 1.91 2.33 2.62 2.72 2.80 2.97 3.12 3.22 3.16 3.12 3.02 2.74 2.49 2.51 2.47
0.14 0.14 0.15 0.14 0.15 0.18 0.20 0.25 0.31 0.46 0.76 1.12 1.32 1.66 1.80 1.26 1.04 0.80 0.78 0.86 0.91 0.93 0.96 1.03 1.06 1.16 1.26 1.44 1.71 1.91 2.09 2.43 2.55 2.66 2.86 2.89 3.12 3.01 2.84 2.79 2.57 2.34 2.25 2.35
0.12 0.13 0.18 0.18 0.18 0.22 0.24 0.26 0.30 0.38 0.51 0.86 1.44 1.69 1.29 1.02 0.88 0.83 0.78 0.87 0.91 0.90 0.86 0.88 1.00 1.12 1.22 1.37 1.60 1.75 1.80 2.03 2.23 2.40 2.61 2.63 2.64 2.72 2.76 2.59 2.33 2.27 2.32 2.44
0.10 0.12 0.19 0.25 0.28 0.25 0.24 0.23 0.28 0.39 0.40 0.52 0.90 1.27 0.86 0.84 0.90 0.90 0.86 0.93 1.02 1.00 0.95 0.98 1.12 1.23 1.29 1.44 1.51 1.56 1.64 1.85 2.08 2.33 2.59 2.75 2.75 2.70 2.69 2.53 2.34 2.35 2.43 2.46
0.12 0.14 0.29 0.50 0.57 0.39 0.26 0.22 0.24 0.28 0.29 0.44 0.79 1.10 0.73 0.67 0.82 1.04 1.34 1.49 1.26 1.09 1.02 1.09 1.19 1.23 1.20 1.30 1.46 1.52 1.55 1.75 2.01 2.26 2.58 2.81 2.90 2.88 2.77 2.51 2.30 2.20 2.14 2.19
0.16 0.15 0.29 0.58 0.67 0.54 0.38 0.26 0.23 0.24 0.35 0.42 0.52 0.83 0.80 0.83 0.92 1.15 1.31 1.22 1.17 1.08 1.04 1.12 1.14 1.27 1.25 1.27 1.41 1.46 1.56 1.65 1.92 2.19 2.40 2.60 2.55 2.46 2.44 2.29 2.12 2.00 1.96 1.99
0.21 0.20 0.20 0.25 0.36 0.39 0.35 0.32 0.28 0.24 0.25 0.42 0.49 0.67 0.80 0.89 1.01 1.23 1.37 1.32 1.19 1.01 0.94 0.97 0.99 1.07 1.12 1.25 1.39 1.33 1.37 1.45 1.63 1.83 1.93 2.11 2.13 2.10 2.07 2.12 2.14 2.11 2.12 2.05
0.27 0.31 0.30 0.29 0.31 0.36 0.40 0.38 0.33 0.28 0.25 0.32 0.46 0.73 0.93 0.95 1.00 1.18 1.21 1.08 0.91 0.81 0.70 0.67 0.85 0.94 0.93 0.98 1.09 1.08 1.09 1.26 1.44 1.53 1.65 1.90 2.04 2.08 2.08 2.14 2.27 2.30 2.25 2.21
0.33 0.40 0.44 0.43 0.39 0.40 0.52 0.48 0.41 0.34 0.34 0.38 0.54 0.79 1.04 0.91 0.84 0.97 1.01 0.96 0.88 0.88 0.71 0.67 0.79 0.97 1.05 1.00 0.97 1.09 1.20 1.34 1.44 1.56 1.69 1.90 2.04 2.15 2.21 2.22 2.35 2.29 2.30 2.35
0.49 0.54 0.51 0.50 0.62 0.75 0.58 0.45 0.44 0.46 0.50 0.46 0.63 0.72 0.87 0.84 0.86 0.99 0.99 0.98 0.84 0.83 0.80 0.81 0.85 0.84 0.89 0.92 0.96 1.11 1.38 1.65 1.70 1.81 1.98 2.11 2.25 2.20 2.19 2.20 2.25 2.36 2.45 2.50
0.43 0.64 0.65 0.67 0.81 0.73 0.64 0.47 0.53 0.60 0.79 0.81 0.93 0.94 0.94 0.91 0.98 1.05 0.90 0.84 0.85 0.77 0.79 0.88 0.94 0.91 0.96 1.00 1.04 1.21 1.40 1.70 1.88 1.92 2.03 2.19 2.30 2.34 2.35 2.35 2.35 2.47 2.59 2.57
0.49 0.66 0.83 0.82 0.97 0.96 0.81 0.61 0.61 0.80 1.39 1.18 1.14 1.17 1.07 0.98 1.16 1.26 1.14 1.05 0.99 0.91 0.88 0.91 0.97 1.08 1.24 1.30 1.31 1.42 1.52 1.66 1.83 1.90 2.03 2.21 2.44 2.49 2.50 2.65 2.76 2.74 2.71 2.59
0.84 0.92 0.96 0.95 1.04 1.14 0.95 0.82 0.85 1.44 1.82 1.44 1.31 1.31 1.30 1.37 1.37 1.28 1.12 1.14 1.10 1.00 0.98 0.95 1.03 1.19 1.43 1.57 1.60 1.68 1.80 1.90 1.89 1.94 2.08 2.27 2.46 2.56 2.63 2.81 2.90 2.90 2.85 2.85
1.06 1.14 1.14 1.15 1.38 1.59 1.07 1.02 1.47 1.79 1.49 1.53 1.54 1.50 1.42 1.37 1.30 1.22 1.14 1.18 1.14 1.07 1.09 1.09 1.17 1.37 1.60 1.81 1.77 1.83 1.89 1.91 1.93 1.92 2.06 2.20 2.35 2.36 2.43 2.73 2.83 2.95 2.99 2.94
1.16 1.29 1.39 1.53 1.68 1.51 1.24 1.32 1.48 1.61 1.78 1.71 1.63 1.70 1.49 1.47 1.36 1.25 1.21 1.19 1.16 1.11 1.12 1.18 1.25 1.47 1.73 1.93 1.98 2.03 1.94 2.00 2.03 2.06 2.17 2.29 2.38 2.42 2.51 2.63 2.68 2.78 2.85 2.81
1.43 1.28 1.50 1.77 1.79 1.66 1.56 1.44 1.25 1.37 1.51 1.50 1.51 1.55 1.53 1.47 1.37 1.28 1.19 1.11 1.09 1.11 1.06 1.14 1.27 1.40 1.56 1.77 1.97 2.09 2.11 2.13 2.12 2.18 2.23 2.32 2.43 2.41 2.48 2.60 2.71 2.82 2.89 2.97
1.71 1.50 1.71 2.02 1.89 1.76 1.76 1.62 1.47 1.52 1.59 1.51 1.44 1.42 1.44 1.41 1.33 1.20 1.19 1.16 1.12 1.10 1.06 1.14 1.28 1.38 1.48 1.57 1.70 1.78 1.91 2.01 2.06 2.16 2.22 2.24 2.26 2.34 2.45 2.51 2.63 2.61 2.68 2.71
1.79 1.80 2.06 2.40 2.06 1.91 1.90 1.70 1.51 1.55 1.53 1.62 1.72 1.68 1.44 1.34 1.42 1.36 1.24 1.16 1.15 1.17 1.16 1.19 1.27 1.33 1.40 1.50 1.69 1.76 1.84 1.98 2.12 2.21 2.23 2.19 2.13 2.19 2.23 2.30 2.31 2.34 2.24 2.24